Weather History for Middletown, OH

Change the Weather History Date:

Tuesday, April 23, 2013

  Actual Average (KDAY) Record (KDAY)
Temperature  
Mean Temperature 54 °F 54 °F  
Max Temperature 70 °F 65 °F 86 °F (1960)
Min Temperature 39 °F 44 °F 26 °F (1986)
Degree Days  
Heating Degree Days 10 11  
Month to date heating degree days 342  
Since 1 July heating degree days 5381  
Cooling Degree Days 0 1  
Month to date cooling degree days 3  
Year to date cooling degree days 3  
Growing Degree Days 4 (Base 50)    
Moisture  
Dew Point 49 °F    
Average Humidity 75    
Maximum Humidity 100    
Minimum Humidity 55    
Precipitation  
Precipitation 0.00 in 0.15 in 1.93 in (1996)
Month to date precipitation 3.11  
Year to date precipitation 11.40  
Snow  
Snow 0.00 in 0.00 in 0.50 in (2005)
Month to date snowfall 0.6  
Since 1 July snowfall 23.3  
Snow Depth -    
Sea Level Pressure  
Sea Level Pressure 30.05 in    
Wind  
Wind Speed 4 mph (SSW)    
Max Wind Speed 17 mph    
Max Gust Speed 24 mph    
Visibility 10 miles    
Events      
T = Trace of Precipitation, MM = Missing Value Source: NWS Daily Summary

Daily Weather History Graph

Daily Weather History Graph

Search for Another Location

Airport:

Trip Planner

Search our weather history database for the weather conditions in past years. The results will help you decide how hot, cold, wet, or windy it might be!

Date:

Astronomy

Apr. 23, 2013 Rise Set
Actual Time 6:48 AM EDT 8:23 PM EDT
Civil Twilight 6:20 AM EDT 8:52 PM EDT
Nautical Twilight 5:45 AM EDT 9:26 PM EDT
Astronomical Twilight 5:09 AM EDT 10:03 PM EDT
Moon 6:18 PM EDT (4/23) 5:15 AM EDT (4/23)
Length of Visible Light 14h 32m
Length of Day
13h 35m
Waxing Gibbous, 94% of the Moon is Illuminated
Apr 23
Waxing Gibbous
Apr 25
Full
May 2
Last Quarter
May 9
New
May 18
First Quarter

Hourly Weather History & Observations

Time (EDT) Temp. Dew Point Humidity Pressure Visibility Wind Dir Wind Speed Gust Speed Precip Events Conditions
12:15 AM 47.7 °F 44.6 °F 89% 30.16 in 10.0 mi Calm Calm - N/A   Clear
12:35 AM 47.7 °F 45.3 °F 92% 30.16 in 10.0 mi Calm Calm - N/A   Clear
12:55 AM 47.7 °F 46.2 °F 95% 30.16 in 10.0 mi Calm Calm - N/A   Clear
1:15 AM 46.8 °F 45.7 °F 96% 30.16 in 10.0 mi Calm Calm - N/A   Clear
1:35 AM 45.1 °F 44.2 °F 97% 30.16 in 10.0 mi Calm Calm - N/A   Clear
1:55 AM 45.1 °F 44.2 °F 97% 30.16 in 10.0 mi Calm Calm - N/A   Clear
2:15 AM 42.8 °F 41.9 °F 97% 30.15 in 10.0 mi Calm Calm - N/A   Clear
2:35 AM 42.8 °F 42.3 °F 98% 30.15 in 10.0 mi Calm Calm - N/A   Clear
2:55 AM 41.4 °F 41.4 °F 100% 30.15 in 10.0 mi Calm Calm - N/A   Clear
3:15 AM 41.4 °F 41.4 °F 100% 30.14 in 10.0 mi Calm Calm - N/A   Clear
3:35 AM 41.2 °F 41.2 °F 100% 30.14 in 10.0 mi Calm Calm - N/A   Clear
3:55 AM 40.1 °F 40.1 °F 100% 30.14 in 10.0 mi Calm Calm - N/A   Clear
4:15 AM 40.3 °F 40.3 °F 100% 30.14 in 10.0 mi Calm Calm - N/A   Clear
4:35 AM 40.3 °F 40.3 °F 100% 30.13 in 10.0 mi Calm Calm - N/A   Clear
4:55 AM 40.1 °F 40.1 °F 100% 30.13 in 10.0 mi Calm Calm - N/A   Clear
5:15 AM 40.1 °F 40.1 °F 100% 30.12 in 10.0 mi Calm Calm - N/A   Clear
5:35 AM 40.1 °F 40.1 °F 100% 30.10 in 10.0 mi Calm Calm - N/A   Clear
6:15 AM 40.1 °F 40.1 °F 100% 30.10 in 10.0 mi Calm Calm - N/A   Clear
6:35 AM 39.2 °F 39.2 °F 100% 30.11 in 10.0 mi Calm Calm - N/A   Clear
6:55 AM 39.6 °F 39.6 °F 100% 30.13 in 10.0 mi Calm Calm - N/A   Clear
7:15 AM 40.1 °F 40.1 °F 100% 30.12 in 10.0 mi Calm Calm - N/A   Clear
7:35 AM 40.6 °F 40.6 °F 100% 30.11 in 10.0 mi Calm Calm - N/A   Clear
7:55 AM 43.3 °F 43.3 °F 100% 30.11 in 10.0 mi Calm Calm - N/A   Clear
8:15 AM 47.7 °F 47.7 °F 100% 30.11 in 10.0 mi Calm Calm - N/A   Clear
8:35 AM 52.0 °F 49.5 °F 91% 30.13 in 10.0 mi Calm Calm - N/A   Clear
8:55 AM 55.4 °F 45.0 °F 68% 30.13 in 10.0 mi South 3.5 mph - N/A   Clear
9:15 AM 57.2 °F 45.7 °F 65% 30.12 in 10.0 mi Calm Calm - N/A   Clear
9:35 AM 57.7 °F 45.5 °F 64% 30.12 in 10.0 mi South 3.5 mph - N/A   Clear
9:55 AM 59.0 °F 46.8 °F 64% 30.11 in 10.0 mi South 6.9 mph - N/A   Clear
10:15 AM 60.1 °F 46.9 °F 62% 30.11 in 10.0 mi South 9.2 mph - N/A   Clear
10:35 AM 61.5 °F 46.8 °F 58% 30.11 in 10.0 mi SSW 9.2 mph - N/A   Clear
10:55 AM 62.6 °F 47.7 °F 58% 30.11 in 10.0 mi SSW 11.5 mph - N/A   Clear
11:15 AM 62.6 °F 47.7 °F 58% 30.11 in 10.0 mi South 9.2 mph - N/A   Clear
11:35 AM 65.3 °F 49.5 °F 57% 30.11 in 10.0 mi SSW 5.8 mph - N/A   Clear
11:55 AM 67.6 °F 52.3 °F 58% 30.10 in 10.0 mi SW 4.6 mph - N/A   Clear
12:15 PM 67.6 °F 51.4 °F 56% 30.09 in 10.0 mi SW 11.5 mph 18.4 mph N/A   Clear
12:35 PM 67.6 °F 51.3 °F 56% 30.09 in 10.0 mi SSW 10.4 mph - N/A   Clear
12:55 PM 68.9 °F 53.1 °F 57% 30.08 in 10.0 mi SSW 12.7 mph - N/A   Clear
1:15 PM 70.2 °F 54.1 °F 57% 30.07 in 10.0 mi SSW 11.5 mph 17.3 mph N/A   Clear
1:35 PM 70.2 °F 54.5 °F 57% 30.06 in 10.0 mi SSW 12.7 mph 16.1 mph N/A   Scattered Clouds
1:55 PM 68.9 °F 54.1 °F 59% 30.05 in 10.0 mi SSW 9.2 mph 18.4 mph N/A   Mostly Cloudy
2:15 PM 70.7 °F 53.6 °F 55% 30.04 in 10.0 mi SW 15.0 mph 24.2 mph N/A   Scattered Clouds
2:35 PM 69.8 °F 53.6 °F 56% 30.03 in 10.0 mi SW 12.7 mph - N/A   Mostly Cloudy
2:55 PM 69.4 °F 53.6 °F 57% 30.03 in 10.0 mi SSW 11.5 mph 20.7 mph N/A   Mostly Cloudy
3:15 PM 68.5 °F 53.8 °F 59% 30.02 in 10.0 mi SW 13.8 mph - N/A   Mostly Cloudy
3:35 PM 67.6 °F 52.5 °F 58% 30.02 in 10.0 mi SW 13.8 mph - N/A   Mostly Cloudy
3:55 PM 67.6 °F 53.6 °F 61% 30.02 in 10.0 mi SW 17.3 mph 21.9 mph N/A   Scattered Clouds
4:15 PM 67.6 °F 54.7 °F 63% 30.00 in 10.0 mi SW 16.1 mph - N/A   Mostly Cloudy
4:35 PM 69.1 °F 56.1 °F 63% 30.00 in 10.0 mi SW 16.1 mph - N/A   Scattered Clouds
4:55 PM 67.6 °F 55.0 °F 64% 29.99 in 10.0 mi SSW 17.3 mph 21.9 mph N/A   Mostly Cloudy
5:15 PM 67.6 °F 55.6 °F 65% 29.96 in 10.0 mi South 12.7 mph 20.7 mph N/A   Mostly Cloudy
5:35 PM 67.6 °F 54.5 °F 63% 29.96 in 10.0 mi SSW 11.5 mph - N/A   Mostly Cloudy
5:55 PM 67.6 °F 54.0 °F 61% 29.95 in 10.0 mi SSW 10.4 mph - N/A   Overcast
6:15 PM 67.6 °F 52.9 °F 59% 29.95 in 10.0 mi SSW 16.1 mph 23.0 mph N/A   Overcast
6:35 PM 67.6 °F 53.1 °F 59% 29.95 in 10.0 mi SSW 13.8 mph 19.6 mph N/A   Overcast
6:55 PM 67.6 °F 54.3 °F 62% 29.94 in 10.0 mi South 12.7 mph - N/A   Overcast
7:15 PM 67.6 °F 55.0 °F 64% 29.93 in 10.0 mi South 9.2 mph - N/A   Mostly Cloudy
7:35 PM 67.6 °F 54.7 °F 63% 29.93 in 10.0 mi South 10.4 mph - N/A   Mostly Cloudy
7:55 PM 67.6 °F 54.7 °F 63% 29.92 in 10.0 mi South 12.7 mph - N/A   Mostly Cloudy
8:15 PM 67.6 °F 55.2 °F 64% 29.93 in 10.0 mi SSW 8.1 mph - N/A   Scattered Clouds
8:35 PM 67.6 °F 55.8 °F 66% 29.93 in 10.0 mi South 8.1 mph - N/A   Scattered Clouds
8:55 PM 65.3 °F 54.0 °F 67% 29.92 in 10.0 mi South 8.1 mph - N/A   Scattered Clouds
9:15 PM 66.4 °F 55.0 °F 67% 29.92 in 10.0 mi South 9.2 mph - N/A   Mostly Cloudy
9:35 PM 65.3 °F 54.1 °F 67% 29.91 in 10.0 mi South 10.4 mph - N/A   Overcast
9:55 PM 65.3 °F 54.1 °F 67% 29.92 in 10.0 mi South 8.1 mph - N/A   Mostly Cloudy
10:15 PM 65.3 °F 54.3 °F 68% 29.91 in 10.0 mi South 8.1 mph - N/A   Overcast
10:35 PM 65.5 °F 54.3 °F 67% 29.90 in 10.0 mi South 10.4 mph 16.1 mph N/A   Mostly Cloudy
10:55 PM 65.3 °F 54.7 °F 68% 29.90 in 10.0 mi South 9.2 mph - N/A   Overcast
11:15 PM 67.1 °F 55.4 °F 66% 29.89 in 10.0 mi South 11.5 mph - N/A   Overcast
11:35 PM 65.3 °F 53.8 °F 66% 29.88 in 10.0 mi South 10.4 mph - N/A   Overcast
11:55 PM 66.7 °F 54.3 °F 64% 29.87 in 10.0 mi South 13.8 mph - N/A   Overcast